Погода в Пищалье

Россия / Кировская область     58°14′09″N   48°42′26″E
темп.,
°C
ветер,
м/с
пор.,
м/с
влажн.,
%
обл.,
%
осадки,
мм/ч
давл.,
гПа
погр.,
м
14 мая, пт
пт1400:00+17ююв4156852 0.0 1020426
03:00+17ю41274100 0.1 1020347
06:00+18ю497282 0.0 1020426
09:00+22ююз3655100 0.0 1020772
12:00+25ююз4741100 0.0 10191473
15:00+26ююз464297 0.0 10181702
18:00+23ююз25565 0.0 1017203
21:00+18зюз248070 0.1 101777
15 мая, сб
сб1500:00+16зюз2289100 0.0 101832
03:00+14юз229576 0.0 101937
06:00+18ююв2380100 0.0 1018171
09:00+22ююв3663100 0.0 1017527
12:00+26ю4748100 0.0 10161360
15:00+27ю5841100 0.0 10141466
18:00+25ююз511445 0.0 10131217
21:00+21ююз515525 0.0 1013758
16 мая, вс
вс1600:00+16ю37735 0.0 1014131
03:00+15ю38847 0.0 1014166
06:00+18ююз387130 0.0 1014291
09:00+24ююз4751100 0.0 1013908
12:00+26юз5944100 0.0 10131836
15:00+26ююз6114186 0.0 10132482
18:00+24ююз4854100 0.1 10121195
21:00+17ююз3108538 4.9 1013260
17 мая, пн
пн1700:00+15ююз310930 0.7 1014240
03:00+14юз39960 0.7 1015210
06:00+16юз310813 0.0 1015386
09:00+21зюз585460 0.0 10161315
12:00+24зюз594024 0.0 10152307
15:00+25зюз58364 0.0 10152484
18:00+23зюз37481 0.0 1015437
21:00+17з227161 0.0 101629
18 мая, вт
вт1800:00+15зюз1179100 0.0 101611
03:00+14юз118379 0.0 101711
06:00+18всв11699 0.0 1017124
09:00+23в124966 0.0 1017837
12:00+28вюв123913 0.0 10161760
15:00+29сз133110 0.0 10153023
18:00+25всв245042 0.0 1015153
21:00+20в39645 0.0 1016182